FW7858 Weather Reports


Display with metric or nautical units.
time (UTC)temp
F
wind
direction
speed
MPH
gust
MPH
rain 1hr
in
rain 24hr
in
rain mn
in
humidity
%
barometer
mb
20260507201556 58 297 6.0 16.0 0.00 0.00 0.00 31 1009.2
20260507201053 57 257 7.0 15.0 0.00 0.00 0.00 34 1009.2
20260507200552 56 337 3.0 9.0 0.00 0.00 0.00 36 1009.3
20260507200051 56 348 2.0 9.0 0.00 0.00 0.00 34 1009.5
20260507195549 56 355 3.0 13.0 0.00 0.00 0.00 35 1009.6
20260507195049 55 329 3.0 13.0 0.00 0.00 0.00 37 1009.4
20260507194549 55 311 3.0 16.0 0.00 0.00 0.00 37 1009.6
20260507194048 55 302 9.0 16.0 0.00 0.00 0.00 35 1009.6
20260507193547 55 298 6.0 16.0 0.00 0.00 0.00 37 1009.5
20260507193055 55 339 3.0 8.0 0.00 0.00 0.00 36 1009.7
20260507192546 55 69 2.0 11.0 0.00 0.00 0.00 38 1009.6
20260507192045 55 271 6.0 19.0 0.00 0.00 0.00 35 1009.7
20260507191547 55 295 11.0 19.0 0.00 0.00 0.00 36 1009.8
20260507191044 56 317 5.0 15.0 0.00 0.00 0.00 36 1009.8
20260507190542 55 298 10.0 18.0 0.00 0.00 0.00 35 1009.8
20260507190042 56 304 6.0 20.0 0.00 0.00 0.00 35 1009.8
20260507185540 55 311 10.0 20.0 0.00 0.00 0.00 38 1009.9
20260507185039 55 302 12.0 20.0 0.00 0.00 0.00 36 1010.1
20260507184538 55 317 12.0 21.0 0.00 0.00 0.00 36 1010.0
20260507184040 55 301 14.0 21.0 0.00 0.00 0.00 36 1010.1
20260507183538 55 296 13.0 21.0 0.00 0.00 0.00 36 1010.1
20260507183036 55 334 9.0 21.0 0.00 0.00 0.00 38 1010.2
20260507182535 55 296 11.0 16.0 0.00 0.00 0.00 37 1010.2
20260507182033 55 330 2.0 22.0 0.00 0.00 0.00 38 1010.4
20260507181533 54 298 10.0 21.0 0.00 0.00 0.00 39 1010.3
20260507181032 54 289 4.0 14.0 0.00 0.00 0.00 38 1010.3
20260507180531 54 282 6.0 18.0 0.00 0.00 0.00 38 1010.3
20260507180029 53 279 14.0 21.0 0.00 0.00 0.00 39 1010.5
20260507175527 52 309 6.0 21.0 0.00 0.00 0.00 43 1010.6
20260507175027 52 299 6.0 15.0 0.00 0.00 0.00 40 1010.7
20260507174543 53 288 10.0 15.0 0.00 0.00 0.00 41 1010.7
20260507174024 52 282 10.0 14.0 0.00 0.00 0.00 41 1010.8
20260507173527 53 317 4.0 17.0 0.00 0.00 0.00 42 1011.0
20260507173026 53 22 7.0 13.0 0.00 0.00 0.00 42 1010.9
20260507172521 53 300 5.0 13.0 0.00 0.00 0.00 43 1011.0
20260507172024 53 334 5.0 14.0 0.00 0.00 0.00 42 1011.2
20260507171522 52 323 9.0 17.0 0.00 0.00 0.00 40 1011.2
20260507171020 53 288 10.0 17.0 0.00 0.00 0.00 41 1011.2
20260507170518 52 287 2.0 19.0 0.00 0.00 0.00 41 1011.2
20260507170018 52 306 12.0 19.0 0.00 0.00 0.00 40 1011.4
20260507165521 51 303 11.0 17.0 0.00 0.00 0.00 41 1011.2
20260507165015 52 317 4.0 14.0 0.00 0.00 0.00 42 1011.4
20260507164513 51 22 7.0 16.0 0.00 0.00 0.00 45 1011.4
20260507164014 51 49 2.0 16.0 0.00 0.00 0.00 44 1011.5
20260507163514 51 297 2.0 15.0 0.00 0.00 0.00 43 1011.5
20260507163011 51 302 6.0 15.0 0.00 0.00 0.00 44 1011.5
20260507162511 50 360 4.0 15.0 0.00 0.00 0.00 44 1011.7
20260507162008 50 307 7.0 15.0 0.00 0.00 0.00 43 1011.7
20260507161506 51 58 1.0 16.0 0.00 0.00 0.00 44 1011.8
20260507161010 50 360 4.0 16.0 0.00 0.00 0.00 45 1011.8
20260507160504 50 360 9.0 15.0 0.00 0.00 0.00 46 1011.8
20260507160007 49 360 10.0 15.0 0.00 0.00 0.00 45 1011.7
20260507155504 49 360 8.0 16.0 0.00 0.00 0.00 47 1011.8
20260507155104 49 360 10.0 16.0 0.00 0.00 0.00 47 1011.9
20260507154559 49 360 7.0 14.0 0.00 0.00 0.00 49 1012.0
20260507154059 48 360 9.0 15.0 0.00 0.00 0.00 50 1012.0
20260507153601 48 360 9.0 15.0 0.00 0.00 0.00 47 1012.0
20260507153055 48 360 11.0 15.0 0.00 0.00 0.00 51 1011.9
20260507152600 48 360 9.0 15.0 0.00 0.00 0.00 53 1011.9
20260507152055 47 360 10.0 15.0 0.00 0.00 0.00 53 1012.0
20260507151557 47 360 11.0 15.0 0.00 0.00 0.00 55 1012.1
20260507151049 47 360 10.0 16.0 0.00 0.00 0.00 55 1012.0
20260507150547 46 360 12.0 16.0 0.00 0.00 0.00 54 1012.0
20260507150046 46 360 12.0 16.0 0.00 0.00 0.00 56 1012.2
20260507145547 46 360 12.0 16.0 0.00 0.00 0.00 58 1012.2
20260507145047 45 360 10.0 16.0 0.00 0.00 0.00 59 1012.1
20260507144543 45 360 9.0 16.0 0.00 0.00 0.00 59 1012.2
20260507144041 44 360 10.0 16.0 0.00 0.00 0.00 61 1012.2
20260507143539 44 360 12.0 15.0 0.00 0.00 0.00 60 1012.2
20260507143038 44 360 10.0 13.0 0.00 0.00 0.00 61 1012.1
20260507142537 43 360 9.0 14.0 0.00 0.00 0.00 62 1012.2
20260507142035 43 360 10.0 15.0 0.00 0.00 0.00 62 1012.3
20260507141534 43 360 12.0 15.0 0.00 0.00 0.00 62 1012.2
20260507141033 43 360 10.0 14.0 0.00 0.00 0.00 63 1012.1
20260507140531 42 360 10.0 13.0 0.00 0.00 0.00 63 1012.2
20260507140038 42 360 11.0 13.0 0.00 0.00 0.00 64 1012.2
20260507135528 42 360 9.0 12.0 0.00 0.00 0.00 67 1012.1
20260507135030 41 360 7.0 12.0 0.00 0.00 0.00 67 1012.2
20260507134526 41 360 7.0 11.0 0.00 0.00 0.00 67 1012.3
20260507134024 40 360 8.0 12.0 0.00 0.00 0.00 68 1012.2
20260507133522 39 360 6.0 10.0 0.00 0.00 0.00 70 1012.3
20260507133021 38 360 7.0 10.0 0.00 0.00 0.00 70 1012.3
20260507132520 38 360 5.0 9.0 0.00 0.00 0.00 72 1012.2
20260507132018 37 360 6.0 9.0 0.00 0.00 0.00 73 1012.2
20260507131532 37 360 5.0 9.0 0.00 0.00 0.00 75 1012.2
20260507131016 36 360 6.0 9.0 0.00 0.00 0.00 75 1012.1
20260507130514 36 360 5.0 10.0 0.00 0.00 0.00 77 1012.2
20260507130013 35 360 7.0 10.0 0.00 0.00 0.00 78 1012.2
20260507125511 34 360 5.0 8.0 0.00 0.00 0.00 81 1012.2
20260507125012 32 360 4.0 6.0 0.00 0.00 0.00 85 1012.2
20260507124508 30 360 0.0 2.0 0.00 0.00 0.00 85 1012.3
20260507124007 30 360 0.0 0.0 0.00 0.00 0.00 85 1012.2
20260507123510 30 360 0.0 1.0 0.00 0.00 0.00 84 1012.2
20260507123005 29 360 0.0 2.0 0.00 0.00 0.00 85 1012.2
20260507122508 29 360 1.0 2.0 0.00 0.00 0.00 85 1012.3
20260507122006 28 360 0.0 1.0 0.00 0.00 0.00 85 1012.3
20260507121504 28 360 0.0 1.0 0.00 0.00 0.00 85 1012.2
20260507121004 27 360 0.0 0.0 0.00 0.00 0.00 84 1012.2
20260507120503 27 360 0.0 1.0 0.00 0.00 0.00 83 1012.1
20260507120004 27 360 0.0 1.0 0.00 0.00 0.00 83 1012.0
20260507115503 28 360 0.0 2.0 0.00 0.00 0.00 83 1011.9
20260507115003 28 360 0.0 2.0 0.00 0.00 0.00 84 1011.9
20260507114503 27 360 0.0 1.0 0.00 0.00 0.00 85 1011.8
20260507114003 27 360 0.0 1.0 0.00 0.00 0.00 84 1011.8
20260507113506 27 360 0.0 0.0 0.00 0.00 0.00 84 1011.8
20260507113002 26 360 0.0 0.0 0.00 0.00 0.00 84 1011.9
20260507112504 26 360 0.0 0.0 0.00 0.00 0.00 83 1011.9
20260507112002 26 360 0.0 0.0 0.00 0.00 0.00 83 1011.9
20260507111503 27 360 0.0 0.0 0.00 0.00 0.00 82 1012.0
20260507111002 27 360 0.0 0.0 0.00 0.00 0.00 82 1012.0
20260507110600 27 360 0.0 1.0 0.00 0.00 0.00 82 1011.9
20260507110105 27 360 0.0 1.0 0.00 0.00 0.00 82 1011.9
20260507105600 27 360 0.0 0.0 0.00 0.00 0.00 82 1011.9
20260507105058 27 360 0.0 1.0 0.00 0.00 0.00 82 1011.9
20260507104607 27 360 0.0 1.0 0.00 0.00 0.00 82 1012.0
20260507104057 27 360 0.0 0.0 0.00 0.00 0.00 82 1012.0
20260507103557 27 360 0.0 0.0 0.00 0.00 0.00 82 1012.0
20260507103056 27 360 0.0 0.0 0.00 0.00 0.00 81 1012.1
20260507102555 27 360 0.0 0.0 0.00 0.00 0.00 81 1012.1
20260507102055 27 360 0.0 0.0 0.00 0.00 0.00 81 1012.1
20260507101557 28 360 0.0 0.0 0.00 0.00 0.00 81 1012.2
20260507101054 28 360 0.0 0.0 0.00 0.00 0.00 80 1012.2
20260507100553 28 360 0.0 1.0 0.00 0.00 0.00 81 1012.2
20260507100058 28 360 0.0 1.0 0.00 0.00 0.00 81 1012.3
20260507095553 28 360 0.0 1.0 0.00 0.00 0.00 81 1012.3
20260507095053 28 360 0.0 1.0 0.00 0.00 0.00 81 1012.3
20260507094604 28 360 0.0 0.0 0.00 0.00 0.00 82 1012.3
20260507094053 28 360 0.0 0.0 0.00 0.00 0.00 82 1012.3
20260507093552 27 360 0.0 1.0 0.00 0.00 0.00 82 1012.3
20260507093051 27 360 0.0 1.0 0.00 0.00 0.00 83 1012.3
20260507092552 27 360 0.0 1.0 0.00 0.00 0.00 83 1012.3
20260507092054 27 360 0.0 1.0 0.00 0.00 0.00 84 1012.3
20260507091551 27 360 0.0 0.0 0.00 0.00 0.00 84 1012.3
20260507091054 27 360 0.0 0.0 0.00 0.00 0.00 85 1012.3
20260507090550 26 360 0.0 0.0 0.00 0.00 0.00 86 1012.4
20260507090049 26 360 0.0 0.0 0.00 0.00 0.00 85 1012.4
20260507085548 26 360 0.0 0.0 0.00 0.00 0.00 84 1012.4
20260507085049 26 360 0.0 0.0 0.00 0.00 0.00 84 1012.4
20260507084556 26 360 0.0 0.0 0.00 0.00 0.00 83 1012.4
20260507084047 27 360 0.0 0.0 0.00 0.00 0.00 83 1012.5
20260507083549 27 360 0.0 0.0 0.00 0.00 0.00 82 1012.4
20260507083047 27 360 0.0 0.0 0.00 0.00 0.00 81 1012.3
20260507082547 27 360 0.0 0.0 0.00 0.00 0.00 80 1012.2
20260507082046 28 360 0.0 0.0 0.00 0.00 0.00 80 1012.2
20260507081545 28 360 0.0 0.0 0.00 0.00 0.00 80 1012.2
20260507081046 28 360 0.0 0.0 0.00 0.00 0.00 80 1012.2
20260507080545 28 360 0.0 0.0 0.00 0.00 0.00 80 1012.3
20260507080049 28 360 0.0 1.0 0.00 0.00 0.00 81 1012.3
20260507075546 28 360 0.0 2.0 0.00 0.00 0.00 81 1012.3
20260507075042 28 360 0.0 2.0 0.00 0.00 0.00 81 1012.4
20260507074545 28 360 0.0 0.0 0.00 0.00 0.00 80 1012.4
20260507074041 29 360 0.0 0.0 0.00 0.00 0.00 81 1012.4
20260507073541 28 360 0.0 2.0 0.00 0.00 0.00 82 1012.4
20260507073041 28 360 0.0 1.0 0.00 0.00 0.00 83 1012.4
20260507072540 28 360 0.0 1.0 0.00 0.00 0.00 83 1012.4
20260507072040 27 360 0.0 0.0 0.00 0.00 0.00 84 1012.4
20260507071543 27 360 0.0 0.0 0.00 0.00 0.00 85 1012.5
20260507071039 27 360 0.0 0.0 0.00 0.00 0.00 84 1012.5
20260507070539 27 360 0.0 0.0 0.00 0.00 0.00 84 1012.5
20260507070047 26 360 0.0 0.0 0.00 0.00 0.00 84 1012.5
20260507065538 26 360 0.0 1.0 0.00 0.00 0.00 84 1012.5
20260507065036 26 360 0.0 2.0 0.00 0.00 0.00 83 1012.5
20260507064544 27 360 0.0 2.0 0.00 0.00 0.00 82 1012.6
20260507064034 28 360 0.0 2.0 0.00 0.00 0.00 80 1012.8
20260507063533 28 360 0.0 1.0 0.00 0.00 0.00 80 1012.8
20260507063032 29 360 0.0 0.0 0.00 0.00 0.00 82 1012.8
20260507062532 28 360 0.0 0.0 0.00 0.00 0.00 83 1012.7
20260507062032 28 360 0.0 0.0 0.00 0.00 0.00 83 1012.7
20260507061537 28 360 0.0 0.0 0.00 0.00 0.00 82 1012.8
20260507061030 27 360 0.0 0.0 0.00 0.00 0.00 81 1012.8
20260507060529 28 360 0.0 0.0 0.00 0.00 0.00 81 1012.8
20260507060038 28 360 0.0 0.0 0.00 0.00 0.00 81 1012.7
20260507055527 28 360 0.0 0.0 0.00 0.00 0.00 80 1012.6
20260507055026 28 360 0.0 0.0 0.00 0.00 0.00 79 1012.7
20260507054536 28 360 0.0 0.0 0.00 0.00 0.00 79 1012.9
20260507054025 29 360 0.0 0.0 0.00 0.00 0.00 78 1012.9
20260507053524 29 360 0.0 0.0 0.00 0.00 0.00 78 1012.9
20260507053023 29 360 0.0 0.0 0.00 0.00 0.00 78 1012.9
20260507052529 29 360 0.0 0.0 0.00 0.00 0.00 78 1012.9
20260507052022 29 360 0.0 0.0 0.00 0.00 0.00 78 1013.0
20260507051522 29 360 0.0 0.0 0.00 0.00 0.00 78 1013.0
20260507051026 0 0.0 0.0 0.00 0.00 0.00 1014.9
20260507045012 29 360 0.0 0.0 0.00 0.00 0.00 78 1013.5
20260507044519 29 360 0.0 0.0 0.00 0.00 0.00 79 1013.5
20260507044011 29 360 0.0 0.0 0.00 0.00 0.00 79 1013.5
20260507043512 29 360 0.0 0.0 0.00 0.00 0.00 79 1013.5
20260507043010 29 360 0.0 0.0 0.00 0.00 0.00 79 1013.6
20260507042511 29 360 0.0 1.0 0.00 0.00 0.00 79 1013.6
20260507042010 29 360 0.0 2.0 0.00 0.00 0.00 79 1013.8
20260507041508 29 360 0.0 2.0 0.00 0.00 0.00 79 1013.7
20260507041007 30 360 0.0 0.0 0.00 0.00 0.00 78 1013.8
20260507040506 30 360 0.0 0.0 0.00 0.00 0.00 77 1013.9
20260507040005 31 360 0.0 0.0 0.00 0.00 0.00 76 1013.9
20260507035504 31 360 0.0 0.0 0.00 0.00 0.00 75 1014.0
20260507035004 31 360 0.0 0.0 0.00 0.00 0.00 74 1014.0
20260507034505 31 360 0.0 0.0 0.00 0.00 0.00 75 1014.0
20260507034002 31 360 0.0 0.0 0.00 0.00 0.00 75 1014.1
20260507033501 32 360 0.0 0.0 0.00 0.00 0.00 74 1014.2
20260507033103 32 360 0.0 0.0 0.00 0.00 0.00 73 1014.3
20260507032559 33 360 0.0 0.0 0.00 0.00 0.00 71 1014.3
20260507032058 33 360 0.0 0.0 0.00 0.00 0.00 68 1014.3
20260507031558 34 360 0.0 0.0 0.00 0.00 0.00 67 1014.3
20260507031057 34 360 0.0 0.0 0.00 0.00 0.00 67 1014.4
20260507030556 34 360 0.0 0.0 0.00 0.00 0.00 66 1014.4
20260507030057 34 360 0.0 0.0 0.00 0.00 0.00 66 1014.4
20260507025558 35 360 0.0 0.0 0.00 0.00 0.00 65 1014.6
20260507025057 35 360 0.0 0.0 0.00 0.00 0.00 66 1014.5
20260507024557 35 360 0.0 0.0 0.00 0.00 0.00 65 1014.6
20260507024104 35 360 0.0 0.0 0.00 0.00 0.00 64 1014.5
20260507023600 35 360 0.0 0.0 0.00 0.00 0.00 64 1014.6
20260507023056 36 360 0.0 0.0 0.00 0.00 0.00 63 1014.6
20260507022556 36 360 0.0 0.0 0.00 0.00 0.00 62 1014.5
20260507022057 37 360 0.0 0.0 0.00 0.00 0.00 61 1014.4
20260507021605 37 360 0.0 0.0 0.00 0.00 0.00 60 1014.4
20260507021058 38 360 0.0 0.0 0.00 0.00 0.00 60 1014.6
20260507020556 38 360 0.0 0.0 0.00 0.00 0.00 60 1014.5
20260507020057 38 360 0.0 0.0 0.00 0.00 0.00 60 1014.5
20260507015556 39 360 0.0 0.0 0.00 0.00 0.00 59 1014.5
20260507015055 39 360 0.0 2.0 0.00 0.00 0.00 59 1014.4
20260507014558 39 360 0.0 3.0 0.00 0.00 0.00 58 1014.4
20260507014055 40 360 1.0 4.0 0.00 0.00 0.00 59 1014.3
20260507013555 40 360 3.0 5.0 0.00 0.00 0.00 57 1014.3
20260507013054 40 360 2.0 5.0 0.00 0.00 0.00 57 1014.3
20260507012601 40 360 3.0 5.0 0.00 0.00 0.00 57 1014.5
20260507012054 41 360 1.0 3.0 0.00 0.00 0.00 57 1014.5
20260507011557 40 360 0.0 4.0 0.00 0.00 0.00 56 1014.5
20260507011053 41 360 0.0 4.0 0.00 0.00 0.00 56 1014.5
20260507010554 41 360 2.0 4.0 0.00 0.00 0.00 57 1014.4
20260507010053 41 360 2.0 4.0 0.00 0.00 0.00 56 1014.5
20260507005553 41 360 0.0 3.0 0.00 0.00 0.00 56 1014.5
20260507005053 41 360 0.0 3.0 0.00 0.00 0.00 55 1014.5
20260507004552 41 360 0.0 4.0 0.00 0.00 0.00 55 1014.6
20260507004052 41 360 0.0 3.0 0.00 0.00 0.00 56 1014.6
20260507003552 41 360 0.0 5.0 0.00 0.00 0.00 56 1014.6
20260507003050 41 360 0.0 5.0 0.00 0.00 0.00 56 1014.6
20260507002550 41 360 0.0 5.0 0.00 0.00 0.00 56 1014.7
20260507002050 41 360 1.0 4.0 0.00 0.00 0.00 55 1014.8
20260507001550 41 360 1.0 4.0 0.00 0.00 0.00 55 1014.7
20260507001048 41 360 1.0 6.0 0.00 0.00 0.00 55 1014.8
20260507000548 41 360 2.0 6.0 0.00 0.00 0.00 56 1014.8
20260507000048 41 360 1.0 6.0 0.00 0.00 0.00 56 1014.8
20260506235548 41 360 1.0 5.0 0.00 0.00 0.00 56 1014.9
20260506235047 41 360 1.0 8.0 0.00 0.00 0.00 55 1014.9
20260506234603 41 360 3.0 8.0 0.00 0.00 0.00 55 1015.0
20260506234047 41 360 1.0 5.0 0.00 0.00 0.00 56 1015.0
20260506233547 41 360 0.0 4.0 0.00 0.00 0.00 55 1015.0
20260506233047 41 360 1.0 4.0 0.00 0.00 0.00 57 1015.1
20260506232549 41 360 1.0 4.0 0.00 0.00 0.00 56 1015.1
20260506232046 41 360 0.0 3.0 0.00 0.00 0.00 55 1015.1
20260506231546 41 360 1.0 6.0 0.00 0.00 0.00 55 1015.2
20260506231046 41 360 1.0 9.0 0.00 0.00 0.00 56 1015.2
20260506230548 41 360 4.0 9.0 0.00 0.00 0.00 55 1015.2
20260506230045 41 360 5.0 11.0 0.00 0.00 0.00 56 1015.2
20260506225548 41 360 5.0 12.0 0.00 0.00 0.00 55 1015.2
20260506225045 41 360 8.0 12.0 0.00 0.00 0.00 55 1015.2
20260506224547 41 360 5.0 8.0 0.00 0.00 0.00 55 1015.2
20260506224046 41 360 2.0 6.0 0.00 0.00 0.00 56 1015.2
20260506223548 41 360 0.0 6.0 0.00 0.00 0.00 56 1015.3
20260506223049 41 360 2.0 8.0 0.00 0.00 0.00 55 1015.3
20260506222545 41 360 1.0 5.0 0.00 0.00 0.00 56 1015.3
20260506222045 41 360 2.0 13.0 0.00 0.00 0.00 57 1015.3
20260506221544 41 360 8.0 13.0 0.00 0.00 0.00 56 1015.3
20260506221047 41 360 1.0 11.0 0.00 0.00 0.00 56 1015.3
20260506220543 41 360 6.0 13.0 0.00 0.00 0.00 56 1015.4
20260506220044 41 360 6.0 12.0 0.00 0.00 0.00 55 1015.4
20260506215543 41 360 3.0 11.0 0.00 0.00 0.00 55 1015.4
20260506215046 42 360 3.0 12.0 0.00 0.00 0.00 55 1015.4
20260506214544 42 360 1.0 4.0 0.00 0.00 0.00 55 1015.4
20260506214043 42 360 0.0 8.0 0.00 0.00 0.00 54 1015.4
20260506213545 42 360 4.0 8.0 0.00 0.00 0.00 55 1015.5
20260506213042 42 360 2.0 6.0 0.00 0.00 0.00 54 1015.5
20260506212543 41 360 0.0 9.0 0.00 0.00 0.00 55 1015.5
20260506212042 41 360 6.0 13.0 0.00 0.00 0.00 55 1015.5
20260506211542 41 360 4.0 12.0 0.00 0.00 0.00 56 1015.6
20260506211041 41 360 1.0 14.0 0.00 0.00 0.00 55 1015.6
20260506210542 41 360 4.0 14.0 0.00 0.00 0.00 55 1015.6
20260506210041 41 360 7.0 13.0 0.00 0.00 0.00 54 1015.6
20260506205541 41 360 2.0 13.0 0.00 0.00 0.00 54 1015.6
20260506205041 42 360 8.0 13.0 0.00 0.00 0.00 53 1015.7
20260506204551 42 360 0.0 4.0 0.00 0.00 0.00 56 1015.7
20260506204043 42 360 2.0 4.0 0.00 0.00 0.00 55 1015.8
20260506203540 41 360 1.0 11.0 0.00 0.00 0.00 55 1015.8
20260506203042 41 360 4.0 11.0 0.00 0.00 0.00 55 1015.9
20260506202540 41 360 4.0 14.0 0.00 0.00 0.00 55 1015.9
20260506202040 41 360 3.0 14.0 0.00 0.00 0.00 54 1016.0